Munising, MI

8:01 PM EDT on May 27, 2017 (GMT -0400)
Munising

Weather History for KP53 - February, 2013

Change the Weather History Date:

Thursday, February 14, 2013

  Actual Average (KISQ) Record (KISQ)
Temperature  
Mean Temperature 27 °F -  
Max Temperature 33 °F 27 °F 47 °F (1954)
Min Temperature 21 °F 7 °F -26 °F (1970)
Degree Days  
Heating Degree Days 38    
Moisture  
Dew Point 21 °F    
Average Humidity 76    
Maximum Humidity 88    
Minimum Humidity 65    
Precipitation  
Precipitation 0.02 in - - ()
Sea Level Pressure  
Sea Level Pressure 29.74 in    
Wind  
Wind Speed 8 mph (North)    
Max Wind Speed 23 mph    
Max Gust Speed 31 mph    
Averages and records for this station are not official NWS values.
T = Trace of Precipitation, MM = Missing Value Source: NWS Daily Summary

Daily Weather History Graph

Daily Weather History Graph

Search for Another Location

Airport or City:

Trip Planner

Search our weather history database for the weather conditions in past years. The results will help you decide how hot, cold, wet, or windy it might be!

Date:

Astronomy

Feb. 14, 2013 Rise Set
Actual Time 7:51 AM EST 6:11 PM EST
Civil Twilight 7:20 AM EST 6:42 PM EST
Nautical Twilight 6:44 AM EST 7:17 PM EST
Astronomical Twilight 6:10 AM EST 7:52 PM EST
Moon 9:33 AM EST (2/14) 11:35 PM EST (2/14)
Length of Visible Light 11h 22m
Length of Day
10h 19m
Waxing Crescent, 21% of the Moon is Illuminated
Feb 14
Waxing Crescent
Feb 17
First Quarter
Feb 25
Full
Mar 4
Last Quarter
Mar 11
New

Hourly Weather History & Observations

Time (EST) Temp. Windchill Dew Point Humidity Pressure Visibility Wind Dir Wind Speed Gust Speed Precip Events Conditions
12:56 AM 26.1 °F 20.5 °F 21.9 °F 84% 29.65 in - South 4.6 mph - N/A   Unknown
1:56 AM 27.0 °F - 21.9 °F 81% 29.64 in - Calm Calm - N/A   Unknown
2:56 AM 28.0 °F 22.8 °F 23.0 °F 81% 29.64 in - South 4.6 mph - N/A   Unknown
3:56 AM 28.9 °F - 24.1 °F 82% 29.64 in - Calm Calm - N/A   Unknown
4:56 AM 30.9 °F - 25.0 °F 79% 29.64 in - Calm Calm - N/A   Unknown
5:56 AM 30.0 °F - 25.0 °F 82% 29.64 in - Calm Calm - N/A   Unknown
6:56 AM 30.9 °F 26.2 °F 24.1 °F 76% 29.65 in - NNW 4.6 mph - 0.01 in   Unknown
7:56 AM 30.0 °F 24.1 °F 25.0 °F 82% 29.66 in - NNW 5.8 mph - N/A   Unknown
8:56 AM 30.0 °F 23.2 °F 27.0 °F 88% 29.68 in - NNW 6.9 mph - 0.01 in   Unknown
9:56 AM 30.9 °F 25.2 °F 26.1 °F 82% 29.68 in - North 5.8 mph - N/A   Unknown
10:56 AM 30.9 °F 21.2 °F 26.1 °F 82% 29.68 in - North 12.7 mph - N/A   Unknown
11:56 AM 33.1 °F 23.9 °F 24.1 °F 70% 29.68 in - North 12.7 mph - N/A   Unknown
12:56 PM 32.0 °F 19.2 °F 27.0 °F 82% 29.69 in - North 23.0 mph - N/A   Unknown
1:56 PM 30.0 °F 17.2 °F 24.1 °F 79% 29.70 in - North 20.7 mph 28.8 mph N/A   Unknown
2:56 PM 28.9 °F 15.4 °F 21.0 °F 72% 29.73 in - North 21.9 mph - N/A   Unknown
3:56 PM 28.0 °F 15.7 °F 19.9 °F 72% 29.76 in - North 17.3 mph - N/A   Unknown
4:56 PM 26.1 °F 12.3 °F 18.0 °F 71% 29.80 in - NNW 19.6 mph 26.5 mph N/A   Unknown
5:56 PM 24.1 °F 10.1 °F 15.1 °F 69% 29.83 in - NNW 18.4 mph 28.8 mph N/A   Unknown
6:56 PM 24.1 °F 10.6 °F 14.0 °F 65% 29.86 in - NNW 17.3 mph 29.9 mph N/A   Unknown
7:56 PM 23.0 °F 9.6 °F 14.0 °F 68% 29.88 in - NNW 16.1 mph 27.6 mph N/A   Unknown
8:56 PM 21.9 °F 7.8 °F 16.0 °F 78% 29.90 in - NNW 17.3 mph 31.1 mph N/A   Unknown
9:56 PM 21.9 °F 6.9 °F 12.0 °F 66% 29.91 in - NNW 19.6 mph 28.8 mph N/A   Unknown
10:56 PM 21.9 °F 7.3 °F 12.9 °F 68% 29.91 in - NNW 18.4 mph 28.8 mph N/A   Unknown
11:56 PM 21.0 °F 5.7 °F 14.0 °F 74% 29.92 in - North 19.6 mph 26.5 mph N/A   Unknown